Regional Weather Roundup
Issued by NWS

Home | Current Version | Previous Version | Text Only | Print | Product List | Glossary Off
Versions: 1 2 3 4 5 6 7 8 9 10 11 12 13 14 15 16 17 18 19 20 21 22 23 24 25 26 27 28 29 30 31 32 33 34 35 36 37 38 39 40 41 42 43 44 45 46 47 48 49 50

000
ASUS43 KLMK 272302
RWRKY
KENTUCKY REGIONAL WEATHER ROUNDUP
NATIONAL WEATHER SERVICE LOUISVILLE KY
700 PM EDT MON JUL 27 2015

NOTE "FAIR" INDICATES FEW OR NO CLOUDS BELOW 12,000 FEET
WITH NO SIGNIFICANT WEATHER AND/OR OBSTRUCTIONS TO VISIBILITY.

KYZ001>023-026-027-061>063-070>075-280000-
WESTERN AND SOUTH CENTRAL KENTUCKY

CITY           SKY/WX    TMP DP  RH WIND       PRES   REMARKS
PADUCAH        MOSUNNY   90  77  65 SW7       29.88F HX 103
HENDERSON      PTSUNNY   86  79  79 CALM      29.89S THUNDER HX  99
OWENSBORO      MOSUNNY   92  77  61 W5        29.92S HX 105
HOPKINSVILLE   MOSUNNY   91  76  62 SW8       29.91F HX 102
BOWLING GREEN  MOSUNNY   86  76  71 SE8       29.93F HX  96
GLASGOW        NOT AVBL
$$

KYZ024-025-028>034-038-045-046-053-280000-
NORTH CENTRAL KENTUCKY

CITY           SKY/WX    TMP DP  RH WIND       PRES   REMARKS
LOUISVILLE/SDF MOSUNNY   89  73  59 W7        29.91S HX  97
LOUISVILLE/LOU MOSUNNY   88  72  58 VRB3      29.92F HX  94
FORT KNOX      MOSUNNY   87  75  66 W6        29.91F HX  96
$$

KYZ035>037-039>044-047>052-055>060-089>105-280000-
NORTHEAST KENTUCKY

CITY           SKY/WX    TMP DP  RH WIND       PRES   REMARKS
LEXINGTON      SUNNY     87  72  60 W6        29.95F HX  93
COVINGTON      MOSUNNY   86  70  58 N6        29.94F HX  90
FRANKFORT      SUNNY     85  71  63 SW5       29.93F HX  90
$$

KYZ054-064>069-076>088-106>120-280000-
SOUTHEAST KENTUCKY

CITY           SKY/WX    TMP DP  RH WIND       PRES   REMARKS
JACKSON        LGT RAIN  77  72  84 W3        29.98F
LONDON         PTSUNNY   84  69  60 SE7       29.97F
SOMERSET       NOT AVBL
MIDDLESBORO    PTSUNNY   84  75  74 N7        29.97F HX  92
MONTICELLO     MOCLDY    87  74  65 CALM      29.99F HX  95
$$



USA.gov is the U.S. government's official web portal to all federal, state and local government web resources and services.